User: anonymous   Login
Location: *
(37.5724°S, 58.0067°E)
Time: 05:30:40
(UTC+00:00)
Language:

Hubble Space Telescope - Orbit

View from above orbital plane
View from above orbital plane
View from above satellite
View from above satellite

Ground track
Ground track

The orbit data is extracted from the following two-line orbital elements,

1 20580U 90037B   21208.59107459  .00000608  00000-0  25784-4 0  9991
2 20580  28.4691 159.4907 0002894 133.1157  29.6651 15.09690373517337
Epoch (UTC): 27 July 2021 14:11:08
Eccentricity: 0.0002894
inclination: 28.4691°
perigee height: 535 km
apogee height: 539 km
right ascension of ascending node: 159.4907°
argument of perigee: 133.1157°
revolutions per day: 15.09690373
mean anomaly at epoch: 29.6651°
orbit number at epoch: 51733

The dashed part of the orbit path shows where the satellite is in the earth's shadow,  

DLR